DECAYED

ELECTRON R/B, 67072 (Decayed)

Orbit data source: Space-Track

ELECTRON R/B, 67072 was space debris in LEO originally from a launch on Sun, 14 Dec 2025 UTC launched from the Rocket Lab Launch Complex (RLLC). Debris objects in space refer to the collection of defunct objects orbiting the Earth. Examples of debris include non-operational satellites, rocket bodies, and fragments generated from explosions, collisions, or faulty payload assembly.

Not visible in the next 10 days
Identifier
67072, 2025-297A
Orbit
Decayed
Country
Flag of USUS
Related business
Manufacturer
Rocket Lab
Mission
Decayed spacecraft
Bus & Motor
ELECTRON ST2, Unknown motor
Mass
250 kg wet, ~250 kg dry
Launch date (UTC)
2025-12-14 (6 months ago)
Launch vehicle
Unknown
Launch site
Rocket Lab Launch Complex (RLLC)
Object type
Payload
Rocket body
Debris
Shape & HBR
Cyl, 8.0 m
Radar Cross Section
2.827 m², Large (>1 m²)

Expand to show TLE details & history
Last TLE update: 6 months ago

TLE from 6 months ago
0 ELECTRON R/B
1 67072U 25297A   25358.28094350  .10667753  20469-5  46079-3 0  9991
2 67072  97.4545 146.8421 0050860 206.0696 153.8040 16.35808035  1621
Epoch: 2025-12-24T06:44Z
TLE epoch observation values (Epoch: 2025-12-24T06:44:33.518Z)
Latitude
0.00003°
Longitude
-47.35015°
Altitude
210.177 km
Speed
7.763 km/s
True Right ascension
09h 47m 22s
True Declination
0° 00' 00"
Sunlit
Object was in full shadow at epoch
Visualization orbit readout
Latitude
Unknown
Longitude
Unknown
Altitude
Unknown
Speed
Unknown
Apparent Right ascension
Unknown
Apparent Declination
Unknown
Sunlit
N/A
Visualization observer readout
Local Sidereal Time
07:13:50
Azimuth
Unknown
Elevation
Unknown
Doppler factor
Unknown
Orbital elements
Apogee altitude
207.116 km
Perigee altitude
140.47 km
Semi-major axis
6,551.93 km
Eccentricity
0.00509
Inclination
97.4545°
RAAN
146.8421°
Arg. of periapsis
206.0696°
True anomaly
154.05982°
Mean anomaly
153.804°
Eccentric anomaly
153.93205°
Mean motion
4.09251 °/min
Orbital period
87.97 mins
BSTAR
0.00046079
Loading maneuver chart data...
Computing Atmospheric mass density...
Loading historical data...
Loading historical data...
Loading historical data...
Loading historical data...
Loading historical data...
Loading historical data...
Loading historical data...
Other satellites on launch #297 in the year 2025 (2025-12-14 UTC)

Documentation

Showing up to 5 results
|